[Iaude] MPEC J152: 2024 HW5 [a=2.01,e=0.93,i=6.0,H=23.3]
    mpec at cfa.harvard.edu 
    mpec at cfa.harvard.edu
       
    Wed May  8 07:03:17 EDT 2024
    
    
  
M.P.E.C. 2024-J152                                  Issued 2024 May 8, 11:01 UT
     The Minor Planet Electronic Circulars contain information on unusual
         minor planets, routine data on comets and natural satellites,
         and occasional editorial announcements.  They are published
    on behalf of Division F of the International Astronomical Union by the
          Minor Planet Center, Smithsonian Astrophysical Observatory,
                          Cambridge, MA 02138, U.S.A.
			  
             Prepared using the Tamkin Foundation Computer Network
                              MPC at CFA.HARVARD.EDU
            URL https://www.minorplanetcenter.net/    ISSN 1523-6714
                                    2024 HW5                                    
Observations:
     K24H05W* C2024 04 28.30291612 38 11.933+03 00 56.97         21.92wXEJ152F52
     K24H05W  C2024 04 28.31603512 38 10.208+03 00 31.11         21.78wXEJ152F52
     K24H05W  C2024 04 28.34242812 38 06.773+02 59 39.20         21.75wXEJ152F52
     K24H05W  C2024 04 28.39388412 38 00.066+02 57 58.29         21.89GVEJ152F51
     K24H05W  C2024 04 28.39452912 37 59.982+02 57 56.91         21.48GVEJ152F51
     K24H05W KC2024 04 29.25880612 36 29.455+02 31 33.46         21.67GVEJ152I52
     K24H05W KC2024 04 29.27264812 36 27.940+02 31 09.34         21.74GVEJ152I52
     K24H05W KC2024 04 29.27809712 36 27.292+02 30 59.54         21.38GVEJ152I52
     K24H05W KC2024 04 29.28352112 36 26.752+02 30 51.52         21.51GVEJ152I52
     K24H05W 1C2024 05 06.89294212 30 13.545+00 09 27.49         23.1 GVEJ152Z84
     K24H05W 1C2024 05 07.96851712 29 55.460-00 03 42.54         23.4 GVEJ152Z84
Observer details:
F51 Pan-STARRS 1, Haleakala.  Observers J. Herman, T. Lowe, P. Minguez, A.
    Schultz, I. Smith.  Measurers K. Chambers, T. de Boer, J. Fairlamb, H.
    Gao, M. Huber, C.-C. Lin, E. Magnier, Y. Ramanjooloo, R. Wainscoat, R.
    Weryk.  1.8-m Ritchey-Chretien + CCD.
F52 Pan-STARRS 2, Haleakala.  Observers J. Herman, T. Lowe, P. Minguez, A.
    Schultz, I. Smith.  Measurers K. Chambers, T. de Boer, J. Fairlamb, H.
    Gao, M. Huber, C.-C. Lin, E. Magnier, Y. Ramanjooloo, R. Wainscoat, R.
    Weryk.  1.8-m Ritchey-Chretien + CCD.
I52 Steward Observatory, Mt. Lemmon Station.  Observer R. A. Kowalski.
    Measurers T. Beuden, V. F. Carvajal, D. Fay, J. B. Fazekas, D. C. Fuls, A.
    R. Gibbs, A. D. Grauer, H. Groeller, J. K. Hogan, R. A. Kowalski, S. M.
    Larson, G. J. Leonard, D. Rankin, R. L. Seaman, F. C. Shelly, K. W.
    Wierzchos.  1.0-m prime focus + CCD.
Z84 Calar Alto-Schmidt.  Observers F. Ocana, M. Micheli, R. Kresken, L.
    Conversi.  Measurers M. Micheli, F. Ocana.  0.8-m f/3 Schmidt + CCD.
Orbital elements:
2024 HW5                                                 Earth MOID = 0.0301 AU
Epoch 2024 Mar. 31.0 TT = JDT 2460400.5                 Veres                   
M   6.69094              (2000.0)            P               Q                  
n   0.34678775     Peri.   21.89515     +0.40143842     -0.91294951             
a   2.0064433      Node    44.52627     +0.82404617     +0.32510419             
e   0.9290105      Incl.    5.99867     +0.39974381     +0.24663833             
P   2.84           H   23.39          G   0.15           U   9                  
Residuals in seconds of arc
240428 F52  0.2-  0.1-    240428 F51  0.1+  0.0     240429 I52  0.1-  0.4+
240428 F52  0.3-  0.0     240429 I52  0.4+  0.2+    240506 Z84  0.1-  0.1-
240428 F52  0.1+  0.1+    240429 I52  0.1+  0.3-    240507 Z84  0.0   0.0
240428 F51  0.1+  0.1+    240429 I52  0.8-  0.8-
Ephemeris:
2024 HW5                 a,e,i = 2.01, 0.93, 6                   q = 0.1424
Date    TT    R. A. (2000) Decl.     Delta      r    Elong.  Phase     V
2024 04 08    23 46 33.8 +09 10 08   0.1927  0.8231    20.1   155.2    29.0
...
2024 04 23    12 59 03.2 +08 19 47   0.1198  1.1142   153.8    23.5    20.1
...
2024 05 01    12 34 08.4 +01 47 56   0.2822  1.2515   146.0    26.7    22.3
...
2024 05 07    12 30 11.5 +00 08 20   0.4082  1.3482   140.2    28.6    23.4
2024 05 08    12 29 55.5 -00 03 52   0.4295  1.3638   139.2    28.9    23.5
2024 05 09    12 29 44.1 -00 15 18   0.4509  1.3793   138.3    29.1    23.6
...
2024 05 15    12 29 50.1 -01 12 53   0.5812  1.4699   133.0    30.2    24.4
...
2024 05 23    12 32 09.5 -02 14 05   0.7594  1.5844   126.2    31.0    25.1
...
2024 06 07    12 40 17.5 -03 53 02   1.1058  1.7830   114.4    31.2    26.2
M. P. C. Staff               (C) Copyright 2024 MPC           M.P.E.C. 2024-J152
    
    
More information about the Iaude
mailing list